RH
100 100 98 96 96 99 97 90 83 90 97 93 92 96 90 99 96 97 98 100 99 100 90 96 98 100 100
100 100 99 99 98 93 92 78 72 77 75 84 91 100 98 90 88 84 88 92 98 100 100 100 100 100 99
98 94 94 94 90 89 87 78 70 60 59 61 72 79 82 83 84 88 86 83 86 92 96 95 95 94 92
89 91 92 90 82 78 70 63 60 58 51 54 49 51 76 53 53 67 86 90 89 86 84 86 88 90 94
88 88 86 69 61 58 53 48 56 56 44 38 45 45 46 44 43 35 33 64 88 90 90 89 86 85 85
77 80 67 60 60 56 62 57 63 63 50 52 52 51 56 60 75 73 48 31 36 70 86 88 92 93 89
54 51 57 58 59 63 62 58 59 65 59 48 61 61 61 65 86 86 88 76 52 38 40 44 55 70 77
51 54 60 63 66 66 68 72 74 72 66 59 61 63 60 73 88 95 94 91 90 97 96 94 88 79 75
41 42 46 52 49 53 66 72 77 73 77 78 77 65 76 80 80 75 72 97 96 98 87 75 85 89 86
55 52 44 63 50 46 60 65 84 87 90 82 83 76 70 86 83 76 72 76 75 77 81 89 86 87 83
44 44 53 58 62 62 58 60 71 81 100 88 90 86 88 86 75 77 81 72 60 65 71 71 75 92 95
45 47 55 61 68 73 74 71 72 75 85 93 92 94 95 91 90 81 72 61 74 77 69 74 75 91 100
46 50 56 62 72 82 86 81 71 79 85 93 98 96 97 92 92 95 95 61 66 65 70 62 63 61 66
45 51 62 69 78 87 76 82 92 90 77 81 93 92 96 95 95 98 93 93 63 62 70 73 72 75 77
48 53 61 73 79 78 84 89 96 91 88 82 83 84 89 92 99 97 89 88 79 80 85 85 76 72 69
45 47 53 68 70 76 83 87 90 91 91 86 80 88 82 69 66 85 88 75 75 82 87 94 80 70 67
44 44 47 50 62 70 78 84 88 91 92 90 86 91 100 98 73 79 86 80 86 80 80 84 85 75 72
Wind_Speed
5 7 4 2 2 2 2 3 3 3 1 1 3 5 6 9 8 10 11 14 17 18 7 16 15 18 21
6 5 2 1 2 1 2 3 3 5 4 5 3 5 5 5 7 6 6 8 10 13 20 20 18 17 13
6 5 3 2 5 4 3 3 0 1 1 2 4 6 6 5 5 5 5 3 4 7 6 7 7 7 7
7 6 5 6 5 6 4 2 2 1 0 1 2 2 4 4 5 4 4 3 3 1 1 2 3 4 5
6 4 5 6 5 4 3 3 1 2 2 1 1 1 2 5 6 6 3 1 1 0 1 1 1 2 4
7 7 6 5 5 3 3 2 2 1 4 2 2 3 3 4 7 8 4 1 3 3 4 4 3 4 5
9 7 7 6 5 3 3 3 2 3 3 2 1 1 3 2 6 7 8 6 3 2 3 4 5 6 7
4 5 4 4 3 3 2 1 1 1 3 0 2 1 4 2 4 6 7 6 5 5 3 2 1 3 4
3 3 2 2 3 4 4 2 2 2 2 2 2 6 0 3 2 1 2 5 5 5 4 3 1 3 6
4 4 3 3 2 3 4 3 2 1 0 3 2 5 0 4 2 3 1 1 3 3 3 3 3 6 9
4 5 4 4 3 1 1 2 4 3 1 3 2 2 2 4 4 6 5 5 9 7 7 7 6 6 7
5 6 6 5 4 3 3 4 5 5 7 6 3 2 4 5 5 4 7 11 4 3 4 2 5 4 6
8 7 6 4 6 7 7 7 6 3 4 6 7 7 8 7 8 10 11 5 12 6 6 16 12 10 11
9 7 8 9 8 7 7 6 8 8 4 5 8 10 13 14 14 21 17 10 6 13 16 14 10 10 12
10 11 11 10 10 10 9 9 11 8 9 6 8 11 14 16 20 21 20 19 15 14 14 17 15 12 13
14 13 14 12 11 12 13 14 15 14 13 11 9 9 10 12 17 22 18 14 13 12 12 17 25 22 20
15 15 14 13 13 13 14 15 17 16 15 13 11 10 4 4 8 13 17 12 12 16 18 21 28 30 24
Wind_Direction
160 164 167 225 259 37 28 48 50 59 23 15 29 18 354 19 29 27 31 48 61 55 189 197 190 180 156
168 162 167 281 210 120 125 95 73 58 34 34 20 18 7 341 4 35 34 28 49 67 85 102 104 121 134
155 159 152 207 160 154 152 187 29 351 2 10 41 36 29 3 9 16 27 29 25 49 77 96 104 108 126
165 164 175 178 159 158 185 250 254 311 329 317 0 12 40 8 11 13 18 32 37 7 22 57 112 138 156
161 185 187 168 186 175 186 250 225 28 354 340 242 313 342 349 358 350 325 292 267 318 292 94 231 235 227
177 182 199 185 185 179 160 204 207 297 354 75 67 67 28 23 7 4 8 294 248 252 247 247 242 243 251
193 185 198 203 194 176 184 178 215 308 339 184 22 5 339 5 23 27 44 42 11 300 268 264 256 253 254
150 167 188 188 189 192 182 173 191 116 17 98 324 339 323 160 70 38 38 35 45 55 54 32 326 294 278
115 130 173 224 241 238 216 209 181 196 353 351 350 346 178 162 182 360 25 46 28 33 22 326 248 239 246
178 175 181 164 214 222 207 202 178 174 274 350 18 7 181 208 264 308 196 306 294 294 308 304 278 270 262
193 200 193 200 198 192 244 242 213 212 228 311 341 14 345 306 276 241 265 290 310 286 282 290 293 286 289
212 213 215 218 229 266 300 282 270 253 237 261 273 283 321 308 285 287 282 300 271 298 305 289 317 289 282
221 223 229 231 241 251 269 278 267 301 267 265 259 259 255 246 285 293 326 309 301 222 296 312 307 296 288
230 228 226 222 229 251 270 250 260 274 259 261 250 257 257 262 269 276 285 285 278 291 304 302 302 294 287
225 227 225 224 232 247 248 246 246 262 284 284 265 263 267 272 274 273 278 282 293 300 297 298 294 296 290
236 237 238 231 237 246 248 249 254 260 271 287 287 284 294 283 262 266 274 282 302 303 295 294 300 304 302
245 248 243 242 239 247 250 254 257 261 266 274 271 264 250 261 277 262 267 286 304 298 296 291 295 299 302